DECAYED

STARLINK-2348, 47888 (Decayed)

Orbit data source: Space-Track

STARLINK-2348, 47888 was a payload satellite owned by SpaceX/Seattle (US) in LEO that was launched on Sun, 14 Mar 2021 UTC via an FALCON 9 launch vehicle from the Air Force Eastern Test Range (AFETR). Payload-class satellites include a variety of spacecraft equipped with specific instruments for various scientific and technological missions. These include communications satellites like Starlink; space stations such as the ISS; scientific satellites like the Hubble; Earth observation satellites from companies like Planet Labs, Umbra, and HawkEye 360; GPS; miniature CubeSats for education and research; and military/defense satellites.

Not visible in the next 10 days
Identifier
47888, 2021-021AE
Orbit
Decayed
Country
Flag of USUS
Related business
Manufacturer
SpaceX/Seattle
Mission
Decayed Commercial Communications
Bus & Motor
STARLINK, Unknown motor
Mass
260 kg wet, ~248 kg dry
Launch date (UTC)
2021-03-14 (5 years ago)
Launch vehicle
FALCON 9
Launch site
Air Force Eastern Test Range (AFETR)
Object type
Payload
Rocket body
Debris
Shape & HBR
Box + 1 Pan, 10.1 m
Radar Cross Section
13.562 m², Large (>1 m²)

Expand to show TLE details & history
Last TLE update: 1 year ago

TLE from 1 year ago
0 STARLINK-2348
1 47888U 21021AE  25112.94830038  .18104115  12628-4  48834-3 0  9991
2 47888  53.0303 246.3525 0011245 315.5328 145.2836 16.44679878227727
Epoch: 2025-04-22T22:45Z
TLE epoch observation values (Epoch: 2025-04-22T22:45:33.152Z)
Latitude
51.8383°
Longitude
161.48249°
Altitude
165.594 km
Speed
7.81 km/s
True Right ascension
23h 36m 26s
True Declination
51° 39' 21"
Sunlit
Object was in daylight at epoch
Visualization orbit readout
Latitude
Unknown
Longitude
Unknown
Altitude
Unknown
Speed
Unknown
Apparent Right ascension
Unknown
Apparent Declination
Unknown
Sunlit
N/A
Visualization observer readout
Local Sidereal Time
00:39:38
Azimuth
Unknown
Elevation
Unknown
Doppler factor
Unknown
Orbital elements
Apogee altitude
161.019 km
Perigee altitude
146.329 km
Semi-major axis
6,531.811 km
Eccentricity
0.00112
Inclination
53.0303°
RAAN
246.3525°
Arg. of periapsis
315.5328°
True anomaly
145.3569°
Mean anomaly
145.2836°
Eccentric anomaly
145.32026°
Mean motion
4.11143 °/min
Orbital period
87.56 mins
BSTAR
0.00048834
Loading maneuver chart data...
Computing Atmospheric mass density...

Documentation

Showing up to 5 results
|